Location: Great Falls Observatory Park
(38.9954°N, 77.3130°W)
Time: 06:18:14
(UTC-05:00)

ISS - Pass Details

Date: 26 October 2019
Orbit: 412 x 421 km, 51.6° (Epoch: 12 November)

Event Time Altitude Azimuth Distance (km) Brightness Sun altitude
Exits shadow 05:21:06 25° 122° (ESE) 883 -1.7 -25.6°
Drops below altitude 10° 05:23:38 10° 75° (ENE) 1,503 0.1 -25.1°
Sets 05:25:56 0° 62° (ENE) 2,370 1.1 -24.7°
